カタログに戻る

COSMOS 2251 DEB

運用中VLEO
NORAD 37518·DEBRIS·🇷🇺 Russia

打ち上げ Jun 16, 1993 から Plesetsk Cosmodrome

Loading…

次のパス (今後24時間)

TLE

古いSource: Space-Track

元期: Sep 7, 2026, 07:02 UTC

1 37518U 93036BMX 26250.29343112  .00137269  00000-0  27957-2 0  9995
2 37518  73.9600  98.3033 0019485 157.8491 202.3566 15.45465203699989

AllMySatでCOSMOS 2251 DEBをリアルタイム追跡

Download on the App Store